This is the latest recevied weather packets stored in our database for station/object W0VI. If no packets are shown the sender has not sent any weather packets the latest 1 day(s).
| Time | Temp. | Humidity | Pressure | Rain* | Wind** | Luminosity | Snow |
|---|---|---|---|---|---|---|---|
| 1778037406 | 4.44° C | 54% | 1013.6 hPa | 0 mm | 0.45 m/s, 321° | 0 W/m² | - |
| 1778037102 | 4.44° C | 54% | 1013.3 hPa | 0 mm | 0.45 m/s, 338° | 0 W/m² | - |
| 1778036801 | 4.44° C | 53% | 1013.2 hPa | 0 mm | 0.89 m/s, 303° | 0 W/m² | - |
| 1778036498 | 4.44° C | 53% | 1013.1 hPa | 0 mm | 0.45 m/s, 340° | 0 W/m² | - |
| 1778036195 | 5° C | 53% | 1013.2 hPa | 0 mm | 0.45 m/s, 335° | 0 W/m² | - |
| 1778035891 | 5° C | 53% | 1013.2 hPa | 0 mm | 1.34 m/s, 346° | 0 W/m² | - |
| 1778035589 | 5° C | 54% | 1013.1 hPa | 0 mm | 0.89 m/s, 303° | 0 W/m² | - |
| 1778035284 | 5° C | 54% | 1013 hPa | 0 mm | 0.89 m/s, 355° | 0 W/m² | - |
| 1778034981 | 5° C | 53% | 1012.9 hPa | 0 mm | 1.34 m/s, 345° | 0 W/m² | - |
| 1778034678 | 5.56° C | 52% | 1013.1 hPa | 0 mm | 0.45 m/s, 18° | 0 W/m² | - |
| 1778034375 | 5.56° C | 52% | 1013 hPa | 0 mm | 3.58 m/s, 312° | 0 W/m² | - |
| 1778034073 | 5.56° C | 53% | 1012.6 hPa | 0 mm | 2.24 m/s, 337° | 0 W/m² | - |
| 1778033771 | 5.56° C | 54% | 1012.5 hPa | 0 mm | 1.34 m/s, 342° | 0 W/m² | - |
| 1778033468 | 5.56° C | 54% | 1012.4 hPa | 0 mm | 0.89 m/s, 328° | 0 W/m² | - |
| 1778033165 | 6.11° C | 53% | 1012.6 hPa | 0 mm | 0.45 m/s, 358° | 0 W/m² | - |
| 1778032862 | 6.11° C | 52% | 1012.4 hPa | 0 mm | 0 m/s | 0 W/m² | - |
| 1778032560 | 6.11° C | 50% | 1012.4 hPa | 0 mm | 1.79 m/s, 15° | 0 W/m² | - |
| 1778032256 | 6.67° C | 50% | 1012.4 hPa | 0 mm | 0 m/s | 0 W/m² | - |
| 1778031954 | 6.67° C | 49% | 1012.2 hPa | 0 mm | 1.79 m/s, 286° | 0 W/m² | - |
| 1778031649 | 6.67° C | 49% | 1011.9 hPa | 0 mm | 0.89 m/s, 1° | 0 W/m² | - |
| 1778031348 | 6.67° C | 49% | 1011.9 hPa | 0 mm | 0.89 m/s, 329° | 0 W/m² | - |
| 1778031044 | 6.67° C | 49% | 1011.9 hPa | 0 mm | 1.34 m/s, 327° | 0 W/m² | - |
| 1778030740 | 6.67° C | 48% | 1012 hPa | 0 mm | 1.79 m/s, 322° | 0 W/m² | - |
| 1778030437 | 6.67° C | 47% | 1011.7 hPa | 0 mm | 2.24 m/s, 323° | 3 W/m² | - |
| 1778030135 | 7.22° C | 48% | 1011.7 hPa | 0 mm | 0.89 m/s, 312° | 5 W/m² | - |
* Rain latest hour (hover to see other rain measurements)
** Current wind speed in m/s (hover to see current wind gust speed)